,,,PA_Meas_PMT16A,,PR_Meas_QMR101_102,,RH_Meas_QMH101,,SR_Meas_QMS101,,TA_Meas_QMH101,,GenWind,,GenWind,
date,time,status,PA,status,PR,status,RH,status,SR,status,TA,status,DirAvg,status,SpdAvg,
2009-11-25, 00:00:04,VALID,1010.82,VALID,0,VALID,66.9846,VALID,0,VALID,23.2848,VALID,70,VALID,0,
2009-11-25, 00:01:04,VALID,1010.82,VALID,0,VALID,66.9922,VALID,0,VALID,23.2848,VALID,70,VALID,0,
2009-11-25, 00:02:04,VALID,1010.8,VALID,0,VALID,66.9922,VALID,0,VALID,23.2848,VALID,70,VALID,0,
2009-11-25, 00:03:04,VALID,1010.78,VALID,0,VALID,66.977,VALID,0.105969,VALID,23.2848,VALID,70,VALID,0,
2009-11-25, 00:04:04,VALID,1010.76,VALID,0,VALID,67.0075,VALID,0,VALID,23.2636,VALID,70,VALID,0,
2009-11-25, 00:05:04,VALID,1010.75,VALID,0,VALID,66.9617,VALID,0,VALID,23.2831,VALID,70,VALID,0.115625,
2009-11-25, 00:06:04,VALID,1010.7,VALID,0,VALID,66.9617,VALID,0,VALID,23.2831,VALID,70,VALID,0.216406,
2009-11-25, 00:07:04,VALID,1010.71,VALID,0,VALID,66.9389,VALID,0,VALID,23.2831,VALID,70,VALID,0.207422,
2009-11-25, 00:08:04,VALID,1010.69,VALID,0,VALID,66.9694,VALID,0,VALID,23.3043,VALID,70,VALID,0,
2009-11-25, 00:09:04,VALID,1010.7,VALID,0,VALID,67.0151,VALID,0,VALID,23.2654,VALID,70,VALID,0,
2009-11-25, 00:10:04,VALID,1010.67,VALID,0,VALID,67.0075,VALID,0,VALID,23.2459,VALID,70,VALID,0,
2009-11-25, 00:11:04,VALID,1010.64,VALID,0,VALID,67.0075,VALID,0,VALID,23.2671,VALID,70,VALID,0,
2009-11-25, 00:12:04,VALID,1010.64,VALID,0,VALID,67.0227,VALID,0,VALID,23.2671,VALID,70,VALID,0,
2009-11-25, 00:13:04,VALID,1010.6,VALID,0,VALID,67.0151,VALID,0,VALID,23.2264,VALID,70,VALID,0,
2009-11-25, 00:14:04,VALID,1010.58,VALID,0,VALID,67.0151,VALID,0,VALID,23.2476,VALID,70,VALID,0,
2009-11-25, 00:15:04,VALID,1010.55,VALID,0,VALID,66.9922,VALID,0,VALID,23.2671,VALID,70,VALID,0,
2009-11-25, 00:16:04,VALID,1010.57,VALID,0,VALID,66.977,VALID,0,VALID,23.2654,VALID,70,VALID,0.354297,
2009-11-25, 00:17:04,VALID,1010.56,VALID,0,VALID,66.9846,VALID,0,VALID,23.2866,VALID,70,VALID,0.142188,
2009-11-25, 00:18:04,VALID,1010.57,VALID,0,VALID,66.977,VALID,0,VALID,23.2866,VALID,70,VALID,0.256641,
2009-11-25, 00:19:04,VALID,1010.57,VALID,0,VALID,66.977,VALID,0,VALID,23.2866,VALID,70,VALID,0.324219,
2009-11-25, 00:20:04,VALID,1010.55,VALID,0,VALID,66.977,VALID,0,VALID,23.2866,VALID,70,VALID,0.351563,
2009-11-25, 00:21:04,VALID,1010.53,VALID,0,VALID,66.9694,VALID,0,VALID,23.3061,VALID,70,VALID,0.283594,
2009-11-25, 00:22:04,VALID,1010.51,VALID,0,VALID,66.9617,VALID,0,VALID,23.3061,VALID,70,VALID,0.337891,
2009-11-25, 00:23:04,VALID,1010.5,VALID,0,VALID,66.9617,VALID,0,VALID,23.2848,VALID,70,VALID,0.06875,
2009-11-25, 00:24:04,VALID,1010.48,VALID,0,VALID,66.9694,VALID,0,VALID,23.2848,VALID,70,VALID,0,
2009-11-25, 00:25:04,VALID,1010.48,VALID,0,VALID,66.9922,VALID,0,VALID,23.3043,VALID,70,VALID,0,
2009-11-25, 00:26:04,VALID,1010.48,VALID,0,VALID,66.9922,VALID,0,VALID,23.2636,VALID,70,VALID,0,
2009-11-25, 00:27:04,VALID,1010.45,VALID,0,VALID,66.9922,VALID,0,VALID,23.2654,VALID,70,VALID,0,
2009-11-25, 00:28:04,VALID,1010.42,VALID,0,VALID,67.0151,VALID,0,VALID,23.2848,VALID,70,VALID,0,
2009-11-25, 00:29:04,VALID,1010.41,VALID,0,VALID,66.9922,VALID,0,VALID,23.2848,VALID,70,VALID,0.219922,
2009-11-25, 00:30:04,VALID,1010.4,VALID,0,VALID,66.9846,VALID,0,VALID,23.3043,VALID,70,VALID,0.132813,
2009-11-25, 00:31:04,VALID,1010.41,VALID,0,VALID,66.9922,VALID,0,VALID,23.3043,VALID,70,VALID,0,
2009-11-25, 00:32:04,VALID,1010.39,VALID,0,VALID,66.9846,VALID,0.105969,VALID,23.2831,VALID,70,VALID,0,
2009-11-25, 00:33:04,VALID,1010.38,VALID,0,VALID,67.0075,VALID,0,VALID,23.2654,VALID,70,VALID,0,
2009-11-25, 00:34:04,VALID,1010.37,VALID,0,VALID,67.0227,VALID,0.105969,VALID,23.2654,VALID,70,VALID,0,
2009-11-25, 00:35:04,VALID,1010.37,VALID,0,VALID,67.0456,VALID,0,VALID,23.2654,VALID,70,VALID,0,
2009-11-25, 00:36:04,VALID,1010.33,VALID,0,VALID,67.038,VALID,0,VALID,23.2441,VALID,70,VALID,0.0652344,
2009-11-25, 00:37:04,VALID,1010.36,VALID,0,VALID,67.0609,VALID,0.105969,VALID,23.2246,VALID,70,VALID,0.2875,
2009-11-25, 00:38:04,VALID,1010.29,VALID,0,VALID,67.0914,VALID,0,VALID,23.2459,VALID,70,VALID,0.255859,
2009-11-25, 00:39:04,VALID,1010.28,VALID,0,VALID,67.0533,VALID,0,VALID,23.2459,VALID,70,VALID,0.0117188,
2009-11-25, 00:40:04,VALID,1010.29,VALID,0,VALID,67.0609,VALID,0,VALID,23.2282,VALID,70,VALID,0,
2009-11-25, 00:41:04,VALID,1010.32,VALID,0,VALID,67.0685,VALID,0,VALID,23.2264,VALID,70,VALID,0.0183594,
2009-11-25, 00:42:04,VALID,1010.28,VALID,0,VALID,67.0609,VALID,0,VALID,23.2264,VALID,70,VALID,0,
2009-11-25, 00:43:04,VALID,1010.31,VALID,0,VALID,67.038,VALID,0,VALID,23.2264,VALID,70,VALID,0,
2009-11-25, 00:44:04,VALID,1010.3,VALID,0,VALID,67.0533,VALID,0,VALID,23.2069,VALID,70,VALID,0,
2009-11-25, 00:45:04,VALID,1010.28,VALID,0,VALID,67.0685,VALID,0,VALID,23.2476,VALID,70,VALID,0.114844,
2009-11-25, 00:46:04,VALID,1010.3,VALID,0,VALID,67.0609,VALID,0,VALID,23.2264,VALID,70,VALID,0,
2009-11-25, 00:47:04,VALID,1010.26,VALID,0,VALID,67.0609,VALID,0,VALID,23.2264,VALID,70,VALID,0,
2009-11-25, 00:48:04,VALID,1010.25,VALID,0,VALID,67.0685,VALID,0,VALID,23.2264,VALID,70,VALID,0.215625,
2009-11-25, 00:49:04,VALID,1010.25,VALID,0,VALID,67.0685,VALID,0,VALID,23.2476,VALID,70,VALID,0,
2009-11-25, 00:50:04,VALID,1010.26,VALID,0,VALID,67.0914,VALID,0,VALID,23.2264,VALID,70,VALID,0,
2009-11-25, 00:51:04,VALID,1010.25,VALID,0,VALID,67.0685,VALID,0,VALID,23.2069,VALID,70,VALID,0,
2009-11-25, 00:52:04,VALID,1010.24,VALID,0,VALID,67.0838,VALID,0,VALID,23.2282,VALID,70,VALID,0,
2009-11-25, 00:53:04,VALID,1010.25,VALID,0,VALID,67.0914,VALID,0,VALID,23.2476,VALID,70,VALID,0,
2009-11-25, 00:54:04,VALID,1010.23,VALID,0,VALID,67.0914,VALID,0,VALID,23.2282,VALID,70,VALID,0,
2009-11-25, 00:55:04,VALID,1010.2,VALID,0,VALID,67.1066,VALID,0,VALID,23.2069,VALID,70,VALID,0,
2009-11-25, 00:56:04,VALID,1010.18,VALID,0,VALID,67.0838,VALID,0,VALID,23.2264,VALID,70,VALID,0,
2009-11-25, 00:57:04,VALID,1010.2,VALID,0,VALID,67.1219,VALID,0,VALID,23.2069,VALID,70,VALID,0,
2009-11-25, 00:58:04,VALID,1010.2,VALID,0,VALID,67.1371,VALID,0.105969,VALID,23.1857,VALID,70,VALID,0,
2009-11-25, 00:59:04,VALID,1010.19,VALID,0,VALID,67.1371,VALID,0.105969,VALID,23.1874,VALID,70,VALID,0,
2009-11-25, 01:00:04,VALID,1010.15,VALID,0,VALID,67.16,VALID,0.105969,VALID,23.1467,VALID,70,VALID,0,
2009-11-25, 01:01:04,VALID,1010.13,VALID,0,VALID,67.1448,VALID,0.105969,VALID,23.1467,VALID,70,VALID,0.111719,
2009-11-25, 01:02:04,VALID,1010.12,VALID,0,VALID,67.1448,VALID,0,VALID,23.1467,VALID,70,VALID,0.216797,
2009-11-25, 01:03:04,VALID,1010.09,VALID,0,VALID,67.1448,VALID,0.105969,VALID,23.1467,VALID,70,VALID,0.185547,
2009-11-25, 01:04:04,VALID,1010.11,VALID,0,VALID,67.1524,VALID,0,VALID,23.1679,VALID,70,VALID,0,
2009-11-25, 01:05:04,VALID,1010.13,VALID,0,VALID,67.16,VALID,0,VALID,23.1485,VALID,70,VALID,0,
2009-11-25, 01:06:04,VALID,1010.1,VALID,0,VALID,67.1524,VALID,0.105969,VALID,23.1467,VALID,70,VALID,0,
2009-11-25, 01:07:04,VALID,1010.12,VALID,0,VALID,67.1448,VALID,0,VALID,23.1679,VALID,70,VALID,0,
2009-11-25, 01:08:04,VALID,1010.09,VALID,0,VALID,67.1295,VALID,0,VALID,23.1874,VALID,70,VALID,0,
2009-11-25, 01:09:04,VALID,1010.05,VALID,0,VALID,67.1143,VALID,0,VALID,23.1874,VALID,70,VALID,0.0953125,
2009-11-25, 01:10:04,VALID,1010.03,VALID,0,VALID,67.099,VALID,0,VALID,23.2069,VALID,70,VALID,0.301953,
2009-11-25, 01:11:04,VALID,1010.04,VALID,0,VALID,67.1143,VALID,0,VALID,23.2069,VALID,70,VALID,0.280469,
2009-11-25, 01:12:04,VALID,1010.06,VALID,0,VALID,67.1371,VALID,0,VALID,23.2069,VALID,70,VALID,0.147656,
2009-11-25, 01:13:04,VALID,1010.04,VALID,0,VALID,67.1219,VALID,0,VALID,23.2069,VALID,70,VALID,0.162109,
2009-11-25, 01:14:04,VALID,1010.01,VALID,0,VALID,67.1143,VALID,0,VALID,23.2087,VALID,70,VALID,0,
2009-11-25, 01:15:04,VALID,1009.99,VALID,0,VALID,67.1295,VALID,0,VALID,23.2069,VALID,70,VALID,0,
2009-11-25, 01:16:04,VALID,1010,VALID,0,VALID,67.1524,VALID,0,VALID,23.1874,VALID,70,VALID,0,
2009-11-25, 01:17:04,VALID,1009.98,VALID,0,VALID,67.1219,VALID,0,VALID,23.2069,VALID,70,VALID,0,
2009-11-25, 01:18:04,VALID,1009.98,VALID,0,VALID,67.1448,VALID,0,VALID,23.1874,VALID,70,VALID,0,
2009-11-25, 01:19:04,VALID,1009.97,VALID,0,VALID,67.1371,VALID,0,VALID,23.2069,VALID,70,VALID,0,
2009-11-25, 01:20:04,VALID,1009.97,VALID,0,VALID,67.1524,VALID,0,VALID,23.1874,VALID,70,VALID,0,
2009-11-25, 01:21:04,VALID,1009.96,VALID,0,VALID,67.1524,VALID,0,VALID,23.2069,VALID,85,VALID,0,
2009-11-25, 01:22:04,VALID,1009.95,VALID,0,VALID,67.1371,VALID,0,VALID,23.2069,VALID,98,VALID,0.482812,
2009-11-25, 01:23:04,VALID,1009.92,VALID,0,VALID,67.1219,VALID,0,VALID,23.2069,VALID,97,VALID,0.503516,
2009-11-25, 01:24:05,VALID,1009.92,VALID,0,VALID,67.1371,VALID,0.105969,VALID,23.2069,VALID,84,VALID,0.527344,
2009-11-25, 01:25:04,VALID,1009.92,VALID,0,VALID,67.1524,VALID,0,VALID,23.2069,VALID,65,VALID,0,
2009-11-25, 01:26:05,VALID,1009.88,VALID,0,VALID,67.1448,VALID,0,VALID,23.2069,VALID,102,VALID,0.220313,
2009-11-25, 01:27:04,VALID,1009.88,VALID,0,VALID,67.1371,VALID,0,VALID,23.2264,VALID,102,VALID,0.151172,
2009-11-25, 01:28:05,VALID,1009.91,VALID,0,VALID,67.1524,VALID,0,VALID,23.2051,VALID,102,VALID,0.336719,
2009-11-25, 01:29:05,VALID,1009.93,VALID,0,VALID,67.1371,VALID,0.105969,VALID,23.2459,VALID,112,VALID,0.488281,
2009-11-25, 01:30:05,VALID,1009.93,VALID,0,VALID,67.1219,VALID,0,VALID,23.2459,VALID,146,VALID,0.549219,
2009-11-25, 01:31:05,VALID,1009.94,VALID,0,VALID,67.1448,VALID,0,VALID,23.2246,VALID,151,VALID,0.246875,
2009-11-25, 01:32:05,VALID,1009.92,VALID,0,VALID,67.1295,VALID,0,VALID,23.2459,VALID,151,VALID,0,
2009-11-25, 01:33:05,VALID,1009.89,VALID,0,VALID,67.1371,VALID,0,VALID,23.2459,VALID,151,VALID,0,
2009-11-25, 01:34:05,VALID,1009.84,VALID,0,VALID,67.16,VALID,0,VALID,23.2459,VALID,151,VALID,0,
2009-11-25, 01:35:05,VALID,1009.82,VALID,0,VALID,67.1295,VALID,0,VALID,23.2654,VALID,151,VALID,0,
2009-11-25, 01:36:05,VALID,1009.82,VALID,0,VALID,67.16,VALID,0,VALID,23.2654,VALID,150,VALID,0.3875,
2009-11-25, 01:37:05,VALID,1009.81,VALID,0,VALID,67.1448,VALID,0,VALID,23.2654,VALID,31,VALID,0.589453,
2009-11-25, 01:38:05,VALID,1009.79,VALID,0,VALID,67.1448,VALID,0.105969,VALID,23.2654,VALID,29,VALID,0.281641,
2009-11-25, 01:39:05,VALID,1009.77,VALID,0,VALID,67.1524,VALID,0,VALID,23.2654,VALID,30,VALID,0.447656,
2009-11-25, 01:40:05,VALID,1009.73,VALID,0,VALID,67.1676,VALID,0,VALID,23.2459,VALID,30,VALID,0,
2009-11-25, 01:41:05,VALID,1009.68,VALID,0,VALID,67.1753,VALID,0,VALID,23.2441,VALID,40,VALID,0,
2009-11-25, 01:42:05,VALID,1009.68,VALID,0,VALID,67.2058,VALID,0,VALID,23.2459,VALID,58,VALID,0.396875,
2009-11-25, 01:43:05,VALID,1009.65,VALID,0,VALID,67.221,VALID,0.105969,VALID,23.2264,VALID,58,VALID,0.394922,
2009-11-25, 01:44:05,VALID,1009.66,VALID,0,VALID,67.2286,VALID,0,VALID,23.2051,VALID,58,VALID,0.429688,
2009-11-25, 01:45:05,VALID,1009.62,VALID,0,VALID,67.221,VALID,0,VALID,23.2264,VALID,60,VALID,0.361328,
2009-11-25, 01:46:05,VALID,1009.6,VALID,0,VALID,67.2363,VALID,0.105969,VALID,23.1857,VALID,60,VALID,0,
2009-11-25, 01:47:05,VALID,1009.56,VALID,0,VALID,67.2363,VALID,0,VALID,23.1857,VALID,60,VALID,0,
2009-11-25, 01:48:05,VALID,1009.57,VALID,0,VALID,67.2591,VALID,0,VALID,23.1679,VALID,60,VALID,0,
2009-11-25, 01:49:05,VALID,1009.57,VALID,0,VALID,67.2744,VALID,0,VALID,23.1679,VALID,60,VALID,0,
2009-11-25, 01:50:05,VALID,1009.59,VALID,0,VALID,67.2973,VALID,0,VALID,23.1679,VALID,60,VALID,0,
2009-11-25, 01:51:05,VALID,1009.58,VALID,0,VALID,67.2973,VALID,0,VALID,23.1485,VALID,60,VALID,0,
2009-11-25, 01:52:05,VALID,1009.58,VALID,0,VALID,67.3049,VALID,0,VALID,23.129,VALID,60,VALID,0,
2009-11-25, 01:53:05,VALID,1009.58,VALID,0,VALID,67.3202,VALID,0,VALID,23.129,VALID,60,VALID,0,
2009-11-25, 01:54:05,VALID,1009.57,VALID,0,VALID,67.2973,VALID,0,VALID,23.129,VALID,60,VALID,0,
2009-11-25, 01:55:05,VALID,1009.56,VALID,0,VALID,67.3125,VALID,0.105969,VALID,23.1272,VALID,93,VALID,0,
2009-11-25, 01:56:05,VALID,1009.58,VALID,0,VALID,67.2744,VALID,0.105969,VALID,23.1485,VALID,93,VALID,0,
2009-11-25, 01:57:05,VALID,1009.57,VALID,0,VALID,67.2973,VALID,0.105969,VALID,23.1467,VALID,93,VALID,0,
2009-11-25, 01:58:05,VALID,1009.58,VALID,0,VALID,67.282,VALID,0.105969,VALID,23.1467,VALID,93,VALID,0,
2009-11-25, 01:59:05,VALID,1009.55,VALID,0,VALID,67.3125,VALID,0.105969,VALID,23.1272,VALID,93,VALID,0,
2009-11-25, 02:00:05,VALID,1009.56,VALID,0,VALID,67.3202,VALID,0.105969,VALID,23.129,VALID,92,VALID,0,
2009-11-25, 02:01:05,VALID,1009.53,VALID,0,VALID,67.3278,VALID,0,VALID,23.1272,VALID,19,VALID,0,
2009-11-25, 02:02:05,VALID,1009.53,VALID,0,VALID,67.3278,VALID,0,VALID,23.1485,VALID,70,VALID,0,
2009-11-25, 02:03:05,VALID,1009.52,VALID,0,VALID,67.3278,VALID,0.105969,VALID,23.129,VALID,70,VALID,0,
2009-11-25, 02:04:05,VALID,1009.53,VALID,0,VALID,67.3583,VALID,0.105969,VALID,23.1077,VALID,70,VALID,0,
2009-11-25, 02:05:05,VALID,1009.5,VALID,0,VALID,67.3659,VALID,0,VALID,23.1095,VALID,70,VALID,0,
2009-11-25, 02:06:05,VALID,1009.5,VALID,0,VALID,67.3659,VALID,0.105969,VALID,23.1077,VALID,70,VALID,0,
2009-11-25, 02:07:05,VALID,1009.54,VALID,0,VALID,67.3507,VALID,0.105969,VALID,23.0883,VALID,70,VALID,0,
2009-11-25, 02:08:05,VALID,1009.54,VALID,0,VALID,67.3735,VALID,0,VALID,23.0883,VALID,70,VALID,0,
2009-11-25, 02:09:05,VALID,1009.54,VALID,0,VALID,67.3659,VALID,0,VALID,23.1095,VALID,70,VALID,0,
2009-11-25, 02:10:05,VALID,1009.54,VALID,0,VALID,67.3812,VALID,0,VALID,23.0705,VALID,70,VALID,0,
2009-11-25, 02:11:05,VALID,1009.53,VALID,0,VALID,67.3812,VALID,0,VALID,23.0705,VALID,70,VALID,0,
2009-11-25, 02:12:05,VALID,1009.53,VALID,0,VALID,67.3964,VALID,0,VALID,23.0723,VALID,70,VALID,0,
2009-11-25, 02:13:05,VALID,1009.54,VALID,0,VALID,67.404,VALID,0,VALID,23.0511,VALID,70,VALID,0,
2009-11-25, 02:14:05,VALID,1009.55,VALID,0,VALID,67.3888,VALID,0,VALID,23.0511,VALID,70,VALID,0,
2009-11-25, 02:15:05,VALID,1009.5,VALID,0,VALID,67.404,VALID,0,VALID,23.0723,VALID,70,VALID,0,
2009-11-25, 02:16:05,VALID,1009.55,VALID,0,VALID,67.4345,VALID,0,VALID,23.0316,VALID,70,VALID,0,
2009-11-25, 02:17:05,VALID,1009.54,VALID,0,VALID,67.4269,VALID,0,VALID,23.0333,VALID,70,VALID,0,
2009-11-25, 02:18:05,VALID,1009.51,VALID,0,VALID,67.4345,VALID,0,VALID,23.0528,VALID,70,VALID,0,
2009-11-25, 02:19:05,VALID,1009.46,VALID,0,VALID,67.4269,VALID,0,VALID,23.0121,VALID,70,VALID,0,
2009-11-25, 02:20:05,VALID,1009.45,VALID,0,VALID,67.4269,VALID,0,VALID,23.0528,VALID,70,VALID,0,
2009-11-25, 02:21:05,VALID,1009.43,VALID,0,VALID,67.4269,VALID,0,VALID,23.0528,VALID,70,VALID,0,
2009-11-25, 02:22:05,VALID,1009.45,VALID,0,VALID,67.4193,VALID,0,VALID,23.0121,VALID,70,VALID,0,
2009-11-25, 02:23:05,VALID,1009.46,VALID,0,VALID,67.4422,VALID,0,VALID,23.0121,VALID,70,VALID,0,
2009-11-25, 02:24:05,VALID,1009.45,VALID,0,VALID,67.465,VALID,0,VALID,23.0138,VALID,70,VALID,0,
2009-11-25, 02:25:05,VALID,1009.5,VALID,0,VALID,67.5108,VALID,0.105969,VALID,22.9926,VALID,70,VALID,0,
2009-11-25, 02:26:05,VALID,1009.5,VALID,0,VALID,67.5032,VALID,0,VALID,22.9519,VALID,70,VALID,0,
2009-11-25, 02:27:05,VALID,1009.53,VALID,0,VALID,67.5184,VALID,0.105969,VALID,22.9342,VALID,70,VALID,0,
2009-11-25, 02:28:05,VALID,1009.53,VALID,0,VALID,67.5337,VALID,0.105969,VALID,22.9147,VALID,70,VALID,0,
2009-11-25, 02:29:05,VALID,1009.51,VALID,0,VALID,67.5413,VALID,0.105969,VALID,22.8935,VALID,70,VALID,0,
2009-11-25, 02:30:05,VALID,1009.49,VALID,0,VALID,67.526,VALID,0.105969,VALID,22.874,VALID,70,VALID,0,
2009-11-25, 02:31:05,VALID,1009.52,VALID,0,VALID,67.5184,VALID,0.105969,VALID,22.9147,VALID,70,VALID,0,
2009-11-25, 02:32:05,VALID,1009.54,VALID,0,VALID,67.5184,VALID,0.105969,VALID,22.9147,VALID,70,VALID,0,
2009-11-25, 02:33:05,VALID,1009.51,VALID,0,VALID,67.526,VALID,0.105969,VALID,22.9129,VALID,70,VALID,0,
2009-11-25, 02:34:05,VALID,1009.51,VALID,0,VALID,67.5108,VALID,0.105969,VALID,22.9147,VALID,70,VALID,0,
2009-11-25, 02:35:05,VALID,1009.53,VALID,0,VALID,67.5184,VALID,0.105969,VALID,22.9129,VALID,70,VALID,0,
2009-11-25, 02:36:05,VALID,1009.53,VALID,0,VALID,67.526,VALID,0.105969,VALID,22.8935,VALID,70,VALID,0,
2009-11-25, 02:37:05,VALID,1009.55,VALID,0,VALID,67.5337,VALID,0,VALID,22.8935,VALID,70,VALID,0,
2009-11-25, 02:38:05,VALID,1009.57,VALID,0,VALID,67.5337,VALID,0,VALID,22.874,VALID,70,VALID,0,
2009-11-25, 02:39:05,VALID,1009.54,VALID,0,VALID,67.5413,VALID,0.105969,VALID,22.8952,VALID,70,VALID,0,
2009-11-25, 02:40:05,VALID,1009.52,VALID,0,VALID,67.5413,VALID,0.105969,VALID,22.8757,VALID,70,VALID,0,
2009-11-25, 02:41:05,VALID,1009.51,VALID,0,VALID,67.5337,VALID,0.105969,VALID,22.8757,VALID,70,VALID,0,
2009-11-25, 02:42:05,VALID,1009.49,VALID,0,VALID,67.5489,VALID,0.105969,VALID,22.8562,VALID,70,VALID,0,
2009-11-25, 02:43:05,VALID,1009.48,VALID,0,VALID,67.5718,VALID,0.105969,VALID,22.8545,VALID,70,VALID,0,
2009-11-25, 02:44:05,VALID,1009.46,VALID,0,VALID,67.5337,VALID,0,VALID,22.8545,VALID,70,VALID,0,
2009-11-25, 02:45:05,VALID,1009.43,VALID,0,VALID,67.5489,VALID,0.105969,VALID,22.8545,VALID,70,VALID,0,
2009-11-25, 02:46:05,VALID,1009.47,VALID,0,VALID,67.5718,VALID,0.105969,VALID,22.8757,VALID,70,VALID,0,
2009-11-25, 02:47:05,VALID,1009.49,VALID,0,VALID,67.5794,VALID,0,VALID,22.835,VALID,70,VALID,0,
2009-11-25, 02:48:05,VALID,1009.49,VALID,0,VALID,67.5871,VALID,0.105969,VALID,22.8155,VALID,70,VALID,0,
2009-11-25, 02:49:05,VALID,1009.48,VALID,0,VALID,67.6176,VALID,0.105969,VALID,22.7961,VALID,70,VALID,0,
2009-11-25, 02:50:05,VALID,1009.46,VALID,0,VALID,67.6176,VALID,0.105969,VALID,22.7766,VALID,70,VALID,0,
2009-11-25, 02:51:05,VALID,1009.49,VALID,0,VALID,67.6328,VALID,0.105969,VALID,22.7571,VALID,70,VALID,0,
2009-11-25, 02:52:05,VALID,1009.52,VALID,0,VALID,67.6404,VALID,0.105969,VALID,22.7571,VALID,70,VALID,0,
2009-11-25, 02:53:05,VALID,1009.51,VALID,0,VALID,67.6404,VALID,0,VALID,22.7376,VALID,70,VALID,0,
2009-11-25, 02:54:05,VALID,1009.51,VALID,0,VALID,67.6404,VALID,0.105969,VALID,22.7394,VALID,70,VALID,0,
2009-11-25, 02:55:05,VALID,1009.51,VALID,0,VALID,67.6633,VALID,0,VALID,22.7411,VALID,70,VALID,0,
2009-11-25, 02:56:05,VALID,1009.51,VALID,0,VALID,67.6709,VALID,0,VALID,22.7216,VALID,70,VALID,0,
2009-11-25, 02:57:05,VALID,1009.51,VALID,0,VALID,67.6557,VALID,0,VALID,22.7216,VALID,70,VALID,0,
2009-11-25, 02:58:05,VALID,1009.48,VALID,0,VALID,67.6252,VALID,0,VALID,22.7004,VALID,70,VALID,0,
2009-11-25, 02:59:05,VALID,1009.5,VALID,0,VALID,67.5871,VALID,0,VALID,22.78,VALID,70,VALID,0,
2009-11-25, 03:00:05,VALID,1009.47,VALID,0,VALID,67.5489,VALID,0,VALID,22.78,VALID,58,VALID,0,
2009-11-25, 03:01:05,VALID,1009.44,VALID,0,VALID,67.5337,VALID,0,VALID,22.7995,VALID,55,VALID,0,
2009-11-25, 03:02:05,VALID,1009.44,VALID,0,VALID,67.5108,VALID,0,VALID,22.8173,VALID,43,VALID,0,
2009-11-25, 03:03:05,VALID,1009.43,VALID,0,VALID,67.526,VALID,0,VALID,22.7978,VALID,43,VALID,0,
2009-11-25, 03:04:05,VALID,1009.43,VALID,0,VALID,67.5489,VALID,0,VALID,22.819,VALID,43,VALID,0,
2009-11-25, 03:05:05,VALID,1009.41,VALID,0,VALID,67.5337,VALID,0,VALID,22.8173,VALID,43,VALID,0,
2009-11-25, 03:06:05,VALID,1009.37,VALID,0,VALID,67.5413,VALID,0,VALID,22.7978,VALID,43,VALID,0,
2009-11-25, 03:07:05,VALID,1009.32,VALID,0,VALID,67.526,VALID,0,VALID,22.7978,VALID,43,VALID,0,
2009-11-25, 03:08:05,VALID,1009.33,VALID,0,VALID,67.5184,VALID,0,VALID,22.819,VALID,43,VALID,0,
2009-11-25, 03:09:05,VALID,1009.35,VALID,0,VALID,67.5413,VALID,0,VALID,22.7978,VALID,43,VALID,0,
2009-11-25, 03:10:05,VALID,1009.36,VALID,0,VALID,67.5413,VALID,0,VALID,22.8173,VALID,43,VALID,0,
2009-11-25, 03:11:05,VALID,1009.32,VALID,0,VALID,67.5947,VALID,0,VALID,22.7978,VALID,43,VALID,0,
2009-11-25, 03:12:05,VALID,1009.32,VALID,0,VALID,67.6023,VALID,0,VALID,22.7783,VALID,43,VALID,0,
2009-11-25, 03:13:05,VALID,1009.33,VALID,0,VALID,67.5871,VALID,0,VALID,22.7783,VALID,43,VALID,0,
2009-11-25, 03:14:05,VALID,1009.35,VALID,0,VALID,67.5947,VALID,0,VALID,22.7783,VALID,43,VALID,0,
2009-11-25, 03:15:05,VALID,1009.33,VALID,0,VALID,67.5718,VALID,0,VALID,22.7783,VALID,43,VALID,0,
2009-11-25, 03:16:05,VALID,1009.3,VALID,0,VALID,67.526,VALID,0.105969,VALID,22.7978,VALID,43,VALID,0,
2009-11-25, 03:17:05,VALID,1009.3,VALID,0,VALID,67.5642,VALID,0.105969,VALID,22.7783,VALID,43,VALID,0,
2009-11-25, 03:18:05,VALID,1009.34,VALID,0,VALID,67.5718,VALID,0.105969,VALID,22.7376,VALID,43,VALID,0,
2009-11-25, 03:19:05,VALID,1009.39,VALID,0,VALID,67.6023,VALID,0,VALID,22.7588,VALID,43,VALID,0,
2009-11-25, 03:20:05,VALID,1009.4,VALID,0,VALID,67.6023,VALID,0,VALID,22.7394,VALID,43,VALID,0,
2009-11-25, 03:21:05,VALID,1009.39,VALID,0,VALID,67.6023,VALID,0.105969,VALID,22.7394,VALID,43,VALID,0,
2009-11-25, 03:22:05,VALID,1009.38,VALID,0,VALID,67.6252,VALID,0,VALID,22.7182,VALID,43,VALID,0,
2009-11-25, 03:23:05,VALID,1009.38,VALID,0,VALID,67.6252,VALID,0.105969,VALID,22.7199,VALID,43,VALID,0,
2009-11-25, 03:24:05,VALID,1009.4,VALID,0,VALID,67.6176,VALID,0,VALID,22.7199,VALID,43,VALID,0,
2009-11-25, 03:25:05,VALID,1009.45,VALID,0,VALID,67.6404,VALID,0,VALID,22.7199,VALID,43,VALID,0,
2009-11-25, 03:26:05,VALID,1009.5,VALID,0,VALID,67.6099,VALID,0.105969,VALID,22.7182,VALID,43,VALID,0,
2009-11-25, 03:27:05,VALID,1009.5,VALID,0,VALID,67.5947,VALID,0.105969,VALID,22.7182,VALID,44,VALID,0,
2009-11-25, 03:28:05,VALID,1009.51,VALID,0,VALID,67.5565,VALID,0.105969,VALID,22.7978,VALID,99,VALID,0,
2009-11-25, 03:29:05,VALID,1009.51,VALID,0,VALID,67.526,VALID,0.105969,VALID,22.8173,VALID,99,VALID,0,
2009-11-25, 03:30:05,VALID,1009.49,VALID,0,VALID,67.5032,VALID,0,VALID,22.8368,VALID,98,VALID,0,
2009-11-25, 03:31:05,VALID,1009.49,VALID,0,VALID,67.5032,VALID,0,VALID,22.8368,VALID,98,VALID,0,
2009-11-25, 03:32:05,VALID,1009.46,VALID,0,VALID,67.5032,VALID,0,VALID,22.8368,VALID,98,VALID,0,
2009-11-25, 03:33:05,VALID,1009.46,VALID,0,VALID,67.4955,VALID,0,VALID,22.8562,VALID,98,VALID,0,
2009-11-25, 03:34:05,VALID,1009.46,VALID,0,VALID,67.5184,VALID,0.105969,VALID,22.835,VALID,98,VALID,0,
2009-11-25, 03:35:05,VALID,1009.46,VALID,0,VALID,67.526,VALID,0,VALID,22.8368,VALID,98,VALID,0,
2009-11-25, 03:36:05,VALID,1009.49,VALID,0,VALID,67.5108,VALID,0,VALID,22.8562,VALID,98,VALID,0,
2009-11-25, 03:37:05,VALID,1009.48,VALID,0,VALID,67.526,VALID,0,VALID,22.8368,VALID,98,VALID,0,
2009-11-25, 03:38:05,VALID,1009.5,VALID,0,VALID,67.526,VALID,0,VALID,22.8562,VALID,98,VALID,0,
2009-11-25, 03:39:05,VALID,1009.5,VALID,0,VALID,67.5108,VALID,0,VALID,22.8562,VALID,98,VALID,0,
2009-11-25, 03:40:05,VALID,1009.52,VALID,0,VALID,67.5032,VALID,0.105969,VALID,22.8562,VALID,98,VALID,0,
2009-11-25, 03:41:05,VALID,1009.54,VALID,0,VALID,67.5032,VALID,0,VALID,22.8757,VALID,98,VALID,0,
2009-11-25, 03:42:05,VALID,1009.52,VALID,0,VALID,67.4803,VALID,0,VALID,22.874,VALID,98,VALID,0,
2009-11-25, 03:43:05,VALID,1009.53,VALID,0,VALID,67.4727,VALID,0,VALID,22.8952,VALID,69,VALID,0,
2009-11-25, 03:44:05,VALID,1009.49,VALID,0,VALID,67.4574,VALID,0,VALID,22.8952,VALID,55,VALID,0,
2009-11-25, 03:45:05,VALID,1009.49,VALID,0,VALID,67.4879,VALID,0.105969,VALID,22.9147,VALID,47,VALID,0,
2009-11-25, 03:46:05,VALID,1009.52,VALID,0,VALID,67.465,VALID,0,VALID,22.8952,VALID,39,VALID,0,
2009-11-25, 03:47:05,VALID,1009.5,VALID,0,VALID,67.4955,VALID,0,VALID,22.8952,VALID,39,VALID,0.144922,
2009-11-25, 03:48:05,VALID,1009.5,VALID,0,VALID,67.4727,VALID,0.105969,VALID,22.9147,VALID,53,VALID,0.549219,
2009-11-25, 03:49:05,VALID,1009.47,VALID,0,VALID,67.465,VALID,0,VALID,22.9147,VALID,58,VALID,0.526953,
2009-11-25, 03:50:05,VALID,1009.49,VALID,0,VALID,67.4879,VALID,0,VALID,22.9342,VALID,59,VALID,0.587891,
2009-11-25, 03:51:05,VALID,1009.49,VALID,0,VALID,67.4879,VALID,0,VALID,22.9147,VALID,73,VALID,0.374219,
2009-11-25, 03:52:05,VALID,1009.49,VALID,0,VALID,67.5032,VALID,0,VALID,22.9147,VALID,73,VALID,0.38125,
2009-11-25, 03:53:05,VALID,1009.51,VALID,0,VALID,67.5184,VALID,0,VALID,22.8952,VALID,73,VALID,0,
2009-11-25, 03:54:05,VALID,1009.51,VALID,0,VALID,67.5108,VALID,0,VALID,22.8952,VALID,72,VALID,0.251563,